Zurück zum Katalog

STARLINK-3077

AktivKommunikationVLEO
NORAD 49133·PAYLOAD·🇺🇸 United States

Gestartet Sep 14, 2021 von Vandenberg Space Force Base

Loading…

Nächste Überflüge (nächste 24 Stunden)

TLE

AktuellSource: CelesTrak SupGP

Epoche: Sep 14, 2026, 14:07 UTC

1 49133C 21082D   26257.58868056  .00079222  00000+0  66436-2 0  2576
2 49133  70.0014 178.1732 0002946 264.7034 108.5587 14.98264999    16

Verfolge STARLINK-3077 in Echtzeit mit AllMySat

Download on the App Store